Location: Unspecified
(0.0000°N, 0.0000°E)
Time: 20:48:44
(UTC+02:00)

ASC 2 Rocket - Visible Passes

Search period start: 04 September 2015 00:00
Search period end: 14 September 2015 00:00
Orbit: 555 x 2347 km, 24.0° (Epoch: 02 September)

Date Brightness Start Highest point End Pass type
(mag) Time Alt. Az. Time Alt. Az. Time Alt. Az.
04 Sep 7.5 00:44:10 10° NW 00:44:26 11° NW 00:44:26 11° NW visible
04 Sep 6.7 21:29:53 10° NW 21:40:54 26° N 21:47:29 18° NE visible
04 Sep 6.7 23:35:56 10° NW 23:42:18 28° NNW 23:42:18 28° NNW visible
05 Sep 7.1 20:21:23 10° NW 20:32:09 25° N 20:42:26 10° NE visible
05 Sep 6.3 22:27:39 10° NW 22:39:41 34° NNE 22:40:10 34° NNE visible
06 Sep 7.3 00:33:18 10° NW 00:35:00 15° NW 00:35:00 15° NW visible
06 Sep 6.6 21:19:27 10° NW 21:31:15 30° NNE 21:38:03 20° NE visible
06 Sep 6.5 23:24:59 10° NW 23:32:53 35° NNW 23:32:53 35° NNW visible
07 Sep 7.0 20:11:27 10° NW 20:22:30 27° N 20:33:26 10° ENE visible
07 Sep 6.0 22:16:51 10° NW 22:29:54 42° NNE 22:30:47 41° NNE visible
08 Sep 7.2 00:22:32 10° WNW 00:25:37 19° WNW 00:25:37 19° WNW visible
08 Sep 6.5 21:08:57 10° NW 21:21:27 35° NNE 21:28:44 22° ENE visible
08 Sep 6.2 23:14:09 10° NW 23:23:33 45° NW 23:23:33 45° NW visible
09 Sep 6.9 20:01:24 10° NW 20:12:45 30° NNE 20:24:24 10° ENE visible
09 Sep 5.8 22:06:06 10° NW 22:19:55 51° NNE 22:21:32 49° NE visible
10 Sep 7.0 00:11:52 10° WNW 00:16:22 24° WNW 00:16:22 24° WNW visible
10 Sep 6.4 20:58:28 10° NW 21:11:28 41° NNE 21:19:32 23° ENE visible
10 Sep 5.9 23:03:26 10° WNW 23:14:22 57° NW 23:14:22 57° NW visible
11 Sep 5.7 21:55:29 10° NW 22:09:44 61° NNE 22:12:25 54° ENE visible
12 Sep 6.9 00:01:24 10° WNW 00:07:16 29° WNW 00:07:16 29° WNW visible
12 Sep 6.2 20:48:03 10° NW 21:01:19 49° NNE 21:10:31 23° E visible
12 Sep 5.7 22:52:53 10° WNW 23:05:21 70° WNW 23:05:21 70° WNW visible
13 Sep 5.7 21:44:59 10° WNW 21:59:23 73° NNE 22:03:30 53° E visible
